Tiempo cada hora Muritiba

Hoy, 22 Octubre, Jueves

Tiempo Temperatura Precipitaciones Viento Presión Humedad
00:00 +24°C° 0 mm 1 mps 743 mmHg 93%
01:00 +23°C° 0.1 mm 1 mps 743 mmHg 94%
02:00 +23°C° 0.1 mm 1 mps 742 mmHg 95%
03:00 +23°C° 0.1 mm 1 mps 742 mmHg 95%
04:00 +23°C° 0.1 mm 1 mps 742 mmHg 95%
05:00 +24°C° 0.1 mm 1 mps 743 mmHg 94%
06:00 +24°C° 0.1 mm 1 mps 743 mmHg 93%
07:00 +26°C° 0.2 mm 1 mps 743 mmHg 85%
08:00 +27°C° 0.2 mm 2 mps 743 mmHg 77%
09:00 +29°C° 0.2 mm 3 mps 744 mmHg 69%
10:00 +30°C° 0.1 mm 3 mps 743 mmHg 62%
11:00 +31°C° 0.1 mm 3 mps 743 mmHg 55%
12:00 +34°C° 0.1 mm 3 mps 743 mmHg 47%
13:00 +33°C° 0 mm 4 mps 742 mmHg 48%
14:00 +33°C° 0 mm 4 mps 741 mmHg 49%
15:00 +33°C° 0 mm 4 mps 741 mmHg 50%
16:00 +30°C° 0 mm 4 mps 741 mmHg 59%
17:00 +28°C° 0 mm 3 mps 741 mmHg 69%
18:00 +25°C° 0 mm 3 mps 742 mmHg 78%
19:00 +25°C° 0 mm 2 mps 742 mmHg 83%
20:00 +24°C° 0 mm 2 mps 743 mmHg 88%
21:00 +23°C° 0 mm 2 mps 743 mmHg 94%
22:00 +23°C° 0 mm 2 mps 743 mmHg 95%
23:00 +23°C° 0 mm 1 mps 743 mmHg 96%

Mañana, 23 Octubre, Viernes

Tiempo Temperatura Precipitaciones Viento Presión Humedad
00:00 +22°C° 0 mm 1 mps 743 mmHg 97%
01:00 +22°C° 0 mm 1 mps 742 mmHg 97%
02:00 +22°C° 0 mm 1 mps 742 mmHg 98%
03:00 +22°C° 0 mm 1 mps 742 mmHg 98%
04:00 +22°C° 0.1 mm 1 mps 742 mmHg 96%
05:00 +23°C° 0.1 mm 1 mps 743 mmHg 94%
06:00 +23°C° 0.1 mm 1 mps 743 mmHg 92%
07:00 +25°C° 0.1 mm 2 mps 744 mmHg 81%
08:00 +27°C° 0.1 mm 3 mps 744 mmHg 70%
09:00 +29°C° 0.1 mm 3 mps 744 mmHg 60%
10:00 +30°C° 0 mm 4 mps 744 mmHg 55%
11:00 +32°C° 0 mm 4 mps 743 mmHg 50%
12:00 +33°C° 0 mm 4 mps 743 mmHg 45%
13:00 +33°C° 0 mm 4 mps 742 mmHg 46%
14:00 +32°C° 0 mm 4 mps 742 mmHg 47%
15:00 +32°C° 0 mm 4 mps 741 mmHg 48%
16:00 +29°C° 0 mm 3 mps 741 mmHg 57%
17:00 +27°C° 0 mm 3 mps 741 mmHg 66%
18:00 +25°C° 0 mm 2 mps 742 mmHg 75%
19:00 +24°C° 0 mm 2 mps 742 mmHg 79%
20:00 +24°C° 0 mm 2 mps 743 mmHg 82%
21:00 +24°C° 0 mm 2 mps 743 mmHg 86%
22:00 +23°C° 0 mm 1 mps 743 mmHg 88%
23:00 +23°C° 0 mm 1 mps 742 mmHg 90%

Pasado mañana, 24 Octubre, Sábado

Tiempo Temperatura Precipitaciones Viento Presión Humedad
00:00 +23°C° 0 mm 1 mps 742 mmHg 92%
01:00 +23°C° 0.1 mm 1 mps 742 mmHg 93%
02:00 +23°C° 0.1 mm 1 mps 741 mmHg 95%
03:00 +23°C° 0.1 mm 1 mps 741 mmHg 96%
04:00 +23°C° 0.2 mm 1 mps 742 mmHg 95%
05:00 +23°C° 0.2 mm 1 mps 742 mmHg 95%
06:00 +24°C° 0.2 mm 1 mps 742 mmHg 94%
07:00 +26°C° 0.1 mm 1 mps 743 mmHg 83%
08:00 +28°C° 0.1 mm 2 mps 743 mmHg 71%
09:00 +30°C° 0.1 mm 2 mps 743 mmHg 60%
10:00 +30°C° 0.4 mm 3 mps 743 mmHg 61%
11:00 +30°C° 0.4 mm 3 mps 742 mmHg 62%
12:00 +30°C° 0.4 mm 4 mps 742 mmHg 63%
13:00 +30°C° 0.6 mm 4 mps 741 mmHg 63%
14:00 +30°C° 0.6 mm 3 mps 740 mmHg 63%
15:00 +30°C° 0.6 mm 3 mps 740 mmHg 64%
16:00 +29°C° 0.1 mm 3 mps 740 mmHg 70%
17:00 +27°C° 0.1 mm 3 mps 740 mmHg 77%
18:00 +26°C° 0.1 mm 3 mps 740 mmHg 83%
19:00 +25°C° 0 mm 2 mps 741 mmHg 86%
20:00 +24°C° 0 mm 2 mps 741 mmHg 88%
21:00 +24°C° 0 mm 2 mps 741 mmHg 91%
22:00 +23°C° 0 mm 1 mps 741 mmHg 93%
23:00 +23°C° 0 mm 1 mps 741 mmHg 95%

, 25 Octubre, Domingo

Tiempo Temperatura Precipitaciones Viento Presión Humedad
00:00 +22°C° 0 mm 1 mps 740 mmHg 97%
01:00 +20°C° 0 mm 0 mps 740 mmHg 97%
02:00 +20°C° 0 mm 0 mps 740 mmHg 97%
03:00 +20°C° 0 mm 0 mps 740 mmHg 97%
04:00 +20°C° 0 mm 0 mps 740 mmHg 96%
05:00 +21°C° 0 mm 0 mps 740 mmHg 94%
06:00 +23°C° 0 mm 1 mps 741 mmHg 92%
07:00 +25°C° 0 mm 1 mps 741 mmHg 82%
08:00 +27°C° 0 mm 2 mps 741 mmHg 71%
09:00 +29°C° 0 mm 2 mps 742 mmHg 61%
10:00 +30°C° 0 mm 2 mps 741 mmHg 57%
11:00 +31°C° 0 mm 2 mps 741 mmHg 53%
12:00 +32°C° 0 mm 2 mps 740 mmHg 49%
13:00 +32°C° 0 mm 2 mps 739 mmHg 48%
14:00 +34°C° 0 mm 3 mps 739 mmHg 47%
15:00 +34°C° 0 mm 3 mps 738 mmHg 46%
16:00 +31°C° 0 mm 3 mps 738 mmHg 57%
17:00 +29°C° 0 mm 3 mps 738 mmHg 68%
18:00 +27°C° 0 mm 3 mps 738 mmHg 79%
19:00 +26°C° 0 mm 2 mps 739 mmHg 83%
20:00 +25°C° 0 mm 2 mps 739 mmHg 87%
21:00 +24°C° 0 mm 2 mps 740 mmHg 91%
22:00 +24°C° 0 mm 1 mps 739 mmHg 93%
23:00 +23°C° 0 mm 1 mps 739 mmHg 94%

25 Octubre, Domingo

Tiempo Temperatura Precipitaciones Viento Presión Humedad
00:00 +22°C° 0 mm 1 mps 740 mmHg 97%
01:00 +20°C° 0 mm 0 mps 740 mmHg 97%
02:00 +20°C° 0 mm 0 mps 740 mmHg 97%
03:00 +20°C° 0 mm 0 mps 740 mmHg 97%
04:00 +20°C° 0 mm 0 mps 740 mmHg 96%
05:00 +21°C° 0 mm 0 mps 740 mmHg 94%
06:00 +23°C° 0 mm 1 mps 741 mmHg 92%
07:00 +25°C° 0 mm 1 mps 741 mmHg 82%
08:00 +27°C° 0 mm 2 mps 741 mmHg 71%
09:00 +29°C° 0 mm 2 mps 742 mmHg 61%
10:00 +30°C° 0 mm 2 mps 741 mmHg 57%
11:00 +31°C° 0 mm 2 mps 741 mmHg 53%
12:00 +32°C° 0 mm 2 mps 740 mmHg 49%
13:00 +32°C° 0 mm 2 mps 739 mmHg 48%
14:00 +34°C° 0 mm 3 mps 739 mmHg 47%
15:00 +34°C° 0 mm 3 mps 738 mmHg 46%
16:00 +31°C° 0 mm 3 mps 738 mmHg 57%
17:00 +29°C° 0 mm 3 mps 738 mmHg 68%
18:00 +27°C° 0 mm 3 mps 738 mmHg 79%
19:00 +26°C° 0 mm 2 mps 739 mmHg 83%
20:00 +25°C° 0 mm 2 mps 739 mmHg 87%
21:00 +24°C° 0 mm 2 mps 740 mmHg 91%
22:00 +24°C° 0 mm 1 mps 739 mmHg 93%
23:00 +23°C° 0 mm 1 mps 739 mmHg 94%

26 Octubre, Lunes

Tiempo Temperatura Precipitaciones Viento Presión Humedad
00:00 +23°C° 0 mm 1 mps 739 mmHg 95%
01:00 +23°C° 0 mm 1 mps 739 mmHg 96%
02:00 +23°C° 0 mm 1 mps 738 mmHg 96%
03:00 +23°C° 0 mm 1 mps 738 mmHg 96%
04:00 +23°C° 0 mm 1 mps 738 mmHg 92%
05:00 +24°C° 0 mm 1 mps 739 mmHg 89%
06:00 +25°C° 0 mm 1 mps 739 mmHg 86%
07:00 +26°C° 0 mm 1 mps 739 mmHg 82%
08:00 +26°C° 0 mm 2 mps 740 mmHg 78%
09:00 +27°C° 0 mm 2 mps 740 mmHg 73%
10:00 +29°C° 0 mm 2 mps 740 mmHg 66%
11:00 +31°C° 0 mm 2 mps 739 mmHg 59%
12:00 +32°C° 0 mm 1 mps 739 mmHg 52%
13:00 +32°C° 0 mm 2 mps 738 mmHg 52%
14:00 +32°C° 0 mm 2 mps 737 mmHg 53%
15:00 +33°C° 0 mm 3 mps 737 mmHg 53%
16:00 +30°C° 0.1 mm 3 mps 737 mmHg 63%
17:00 +28°C° 0.1 mm 3 mps 737 mmHg 74%
18:00 +26°C° 0.1 mm 3 mps 737 mmHg 84%
19:00 +26°C° 4.4 mm 2 mps 738 mmHg 88%
20:00 +25°C° 4.4 mm 2 mps 738 mmHg 93%
21:00 +24°C° 4.4 mm 2 mps 739 mmHg 97%
22:00 +24°C° 3.8 mm 2 mps 739 mmHg 96%
23:00 +24°C° 3.8 mm 2 mps 739 mmHg 96%

27 Octubre, Martes

Tiempo Temperatura Precipitaciones Viento Presión Humedad
00:00 +24°C° 3.8 mm 2 mps 739 mmHg 95%
01:00 +24°C° 0.2 mm 1 mps 738 mmHg 96%
02:00 +24°C° 0.2 mm 1 mps 738 mmHg 96%
03:00 +22°C° 0.2 mm 0 mps 738 mmHg 97%
04:00 +22°C° 0.6 mm 0 mps 738 mmHg 96%
05:00 +22°C° 0.6 mm 0 mps 739 mmHg 96%
06:00 +22°C° 0.6 mm 0 mps 739 mmHg 96%
07:00 +25°C° 0 mm 1 mps 739 mmHg 94%
08:00 +25°C° 0 mm 1 mps 740 mmHg 91%
09:00 +25°C° 0 mm 1 mps 740 mmHg 89%
10:00 +27°C° 0 mm 1 mps 740 mmHg 81%
11:00 +28°C° 0 mm 1 mps 739 mmHg 73%
12:00 +30°C° 0 mm 2 mps 739 mmHg 64%
13:00 +30°C° 0 mm 1 mps 738 mmHg 64%
14:00 +30°C° 0 mm 1 mps 738 mmHg 63%
15:00 +30°C° 0 mm 1 mps 737 mmHg 63%
16:00 +29°C° 0.1 mm 1 mps 737 mmHg 71%
17:00 +27°C° 0.1 mm 1 mps 737 mmHg 78%
18:00 +26°C° 0.1 mm 1 mps 737 mmHg 86%
19:00 +26°C° 0.1 mm 1 mps 738 mmHg 88%
20:00 +25°C° 0.1 mm 2 mps 738 mmHg 90%
21:00 +25°C° 0.1 mm 2 mps 739 mmHg 92%
22:00 +24°C° 0.4 mm 2 mps 739 mmHg 93%
23:00 +24°C° 0.4 mm 1 mps 739 mmHg 94%
Mostrar más

Necesitamos Su Consentimiento

Meteoprog y nuestros Proveedores de Servicios pueden almacenar y acceder a sus datos personales como cookies, identificadores de dispositivo u otras tecnologías similares de su dispositivo y procesar dichos datos para personalizar contenido y anuncios, además de ofrecer funciones de redes sociales y analizar el tráfico.

  • Almacenar y/o acceder a información en su dispositivo

    Se puede almacenar o acceder a cookies, identificadores de dispositivo u otra información de su dispositivo para los fines anteriormente indicados.

  • Anuncios y contenido personalizados, medición de anuncios y contenido, percepciones del público, y desarrollo de productos

    Los anuncios y el contenido pueden personalizarse en base a su perfil. Se pueden añadir más datos para personalizar mejor los anuncios y contenidos. Se puede medir el rendimiento de los anuncios y contenidos. Se puede obtener la percepción sobre el público que ha visto los anuncios y contenidos. Dichos datos pueden usarse para desarrollar o mejorar la experiencia del usuario, sistemas y software.

Al hacer clic en ‘Estoy De Acuerdo’ usted permitirá el uso de las cookies, identificadores de dispositivo, balizas web u otras tecnologías similares indicadas. Su configuración puede cambiarse desde el navegador de su dispositivo.

Para ciertos fines, los intereses legítimos pueden ser considerados por encima del consentimiento. Puede leer más sobre ello en nuestra Política de Privacidad y Cookies.